カタリナ彗星

C/2005 J2 ( Catalina )

English version
Home page
Updated on February 25, 2006

---------------------------------------------------------------------

・ プロフィール

発見日 2005年5月12日
発見光度 18.9等
発見者 Catalina Sky Survey

・ 軌道要素

T 2005 Mar. 30.743 TT                                   MPC
q   4.28168              (2000.0)            P               Q
                   Peri.  198.905       -0.945686       -0.183467
                   Node    33.360       -0.197703       +0.979896
e   1.0            Incl.  150.790       -0.258052       -0.078381
>From 51 observations 2005 May 12-15.

・ 星図

・ 光度変化

        m1 = 10.5 + 5 logΔ + 10.0 log r

---------------------------------------------------------------------

軌道要素はM.P.E.C. 2005-K01に掲載されたものです。
星図は StellaNavigator Ver.2.0 for Windows (アストロアーツ 編著 / アスキー出版局刊) で作成したものです。
光度グラフはComet for Windowsで作成したものです。

---------------------------------------------------------------------

Copyright(C) Seiichi Yoshida (comet@aerith.net). All rights reserved.